CAPE MAY NJ US SAI current weather conditions

sailwx.info

Wind from 250 at 14 knots

Air temperature 8.0° C
Visibility: greater than 8.7 NM
Dewpoint 3.0° C

Last reported at 2019-Dec-15 14:04 UTC.
Time now 2019-Dec-15 15:07 UTC

Location: N 39°13' W 074°48'.
View on Google Maps.

See reports from other nearby stations

  
Tides and Currents Weather Stations Pressure Air Temp Water Temp Dewpoint Dewpoint Depression Visibility Wind Speed Wind Dir Waves Ship Positions
date/time (UTC)wind fromknots sea level pressurealtimeterstation pressurevisibilityair tempwater tempwave heightnotes
2019-Dec-15 14:04 250 14 8.7 8.0
2019-Dec-15 13:59 240 13 8.7 8.0
2019-Dec-15 13:54 240 10 gusting 18 8.7 8.0
2019-Dec-15 13:49 260 13 8.7 8.0
2019-Dec-15 13:44 260 12 gusting 16 8.7 8.0
2019-Dec-15 13:39 250 10 gusting 17 8.7 7.0
2019-Dec-15 13:34 250 10 gusting 17 8.7 7.0
2019-Dec-15 13:29 250 8 8.7 7.0
2019-Dec-15 13:24 260 9 8.7 7.0
2019-Dec-15 13:19 250 11 8.7 7.0
2019-Dec-15 13:14 240 12 gusting 17 8.7 7.0
2019-Dec-15 13:09 240 12 8.7 7.0
2019-Dec-15 13:04 230 11 8.7 6.0
2019-Dec-15 12:59 260 9 gusting 16 8.7 6.0
2019-Dec-15 12:54 240 9 gusting 16 8.7 6.0
2019-Dec-15 12:49 250 9 gusting 15 8.7 6.0
2019-Dec-15 12:44 250 10 8.7 6.0
2019-Dec-15 12:39 260 12 8.7 6.0
2019-Dec-15 12:34 240 7 gusting 13 8.7 6.0
2019-Dec-15 12:29 260 7 gusting 13 8.7 6.0
2019-Dec-15 12:24 250 8 gusting 13 8.7 6.0
2019-Dec-15 12:19 270 10 8.7 6.0
2019-Dec-15 12:14 250 12 gusting 14 8.7 6.0
2019-Dec-15 12:09 240 6 8.7 6.0
2019-Dec-15 12:04 260 10 8.7 6.0
2019-Dec-15 11:39 270 6 gusting 12 8.7 6.0
2019-Dec-15 11:34 260 7 8.7 6.0
2019-Dec-15 11:29 270 7 gusting 13 8.7 6.0
2019-Dec-15 11:24 260 6 8.7 6.0
2019-Dec-15 11:19 260 6 gusting 14 8.7 6.0
2019-Dec-15 11:14 250 8 8.7 6.0
2019-Dec-15 11:09 250 11 gusting 15 8.7 7.0
2019-Dec-15 11:04 250 8 8.7 7.0
2019-Dec-15 10:39 240 12 8.7 6.0
2019-Dec-15 10:29 270 9 gusting 18 8.7 6.0
2019-Dec-15 10:24 260 7 gusting 18 8.7 6.0
2019-Dec-15 10:19 260 12 gusting 15 8.7 6.0
2019-Dec-15 10:14 260 10 gusting 15 8.7 6.0
2019-Dec-15 10:09 270 10 8.7 6.0
2019-Dec-15 10:04 270 8 gusting 15 8.7 6.0
2019-Dec-15 09:59 260 11 gusting 15 8.7 6.0
2019-Dec-15 09:54 260 10 8.7 6.0
2019-Dec-15 09:49 270 9 gusting 14 8.7 6.0
2019-Dec-15 09:44 250 13 8.7 6.0
2019-Dec-15 09:39 260 9 8.7 6.0
2019-Dec-15 09:34 270 9 8.7 6.0
2019-Dec-15 09:29 270 7 gusting 15 8.7 6.0
2019-Dec-15 09:24 260 7 gusting 14 8.7 6.0
2019-Dec-15 09:19 260 10 8.7 6.0
2019-Dec-15 09:14 260 8 gusting 16 8.7 6.0
2019-Dec-15 09:09 280 10 gusting 16 8.7 6.0
2019-Dec-15 09:04 250 8 8.7 6.0
2019-Dec-15 08:39 260 9 gusting 13 8.7 6.0
2019-Dec-15 08:34 280 8 8.7 6.0
2019-Dec-15 08:29 270 10 gusting 16 8.7 6.0
2019-Dec-15 08:24 290 8 gusting 16 8.7 6.0
2019-Dec-15 08:19 270 10 gusting 15 8.7 6.0
2019-Dec-15 08:14 270 9 gusting 15 8.7 6.0
2019-Dec-15 08:09 260 9 gusting 15 8.7 6.0
2019-Dec-15 08:04 260 8 8.7 6.0
2019-Dec-15 07:59 260 9 8.7 6.0
2019-Dec-15 07:54 270 12 8.7 6.0
2019-Dec-15 07:49 280 10 8.7 6.0
2019-Dec-15 07:44 270 10 gusting 18 8.7 6.0
2019-Dec-15 07:39 260 7 gusting 18 8.7 6.0
2019-Dec-15 07:34 250 10 8.7 6.0
2019-Dec-15 07:29 270 14 8.7 6.0
2019-Dec-15 07:24 290 9 8.7 6.0
2019-Dec-15 07:19 270 8 gusting 15 8.7 6.0
2019-Dec-15 07:14 270 11 8.7 6.0
2019-Dec-15 07:09 270 10 gusting 16 8.7 6.0
2019-Dec-15 07:04 270 7 gusting 16 8.7 6.0
2019-Dec-15 06:39 270 9 gusting 16 8.7 6.0
2019-Dec-15 06:34 280 10 8.7 6.0
2019-Dec-15 06:29 260 8 8.7 6.0
2019-Dec-15 06:24 270 8 8.7 6.0
2019-Dec-15 06:19 280 10 8.7 5.0
2019-Dec-15 06:14 260 8 8.7 5.0
2019-Dec-15 06:09 270 6 8.7 6.0
2019-Dec-15 06:04 270 6 8.7 6.0
2019-Dec-15 05:39 260 7 gusting 13 8.7 6.0
2019-Dec-15 05:34 270 6 gusting 12 8.7 6.0
2019-Dec-15 05:29 280 7 gusting 12 8.7 6.0
2019-Dec-15 05:24 280 7 gusting 12 8.7 6.0
2019-Dec-15 05:19 280 8 8.7 6.0
2019-Dec-15 05:14 270 11 8.7 6.0
2019-Dec-15 05:09 290 6 8.7 6.0
2019-Dec-15 05:04 270 6 8.7 6.0
2019-Dec-15 04:39 300 16 gusting 16 8.7 6.0
2019-Dec-15 04:34 260 5 gusting 14 8.7 6.0
2019-Dec-15 04:29 300 8 gusting 14 8.7 6.0
2019-Dec-15 04:24 270 7 gusting 13 8.7 6.0
2019-Dec-15 04:19 270 8 8.7 6.0
2019-Dec-15 04:14 280 11 gusting 17 8.7 7.0
2019-Dec-15 04:09 280 11 gusting 20 8.7 7.0
2019-Dec-15 04:04 290 11 gusting 20 8.7 7.0
2019-Dec-15 03:59 300 7 gusting 18 8.7 7.0
2019-Dec-15 03:54 300 12 gusting 18 8.7 7.0
2019-Dec-15 03:49 280 7 gusting 16 8.7 7.0
2019-Dec-15 03:44 290 13 gusting 18 8.7 7.0
2019-Dec-15 03:39 310 13 gusting 18 8.7 7.0
2019-Dec-15 03:34 290 11 gusting 17 8.7 7.0
2019-Dec-15 03:29 290 12 8.7 7.0
2019-Dec-15 03:24 280 13 8.7 7.0
2019-Dec-15 03:19 280 9 8.7 7.0
2019-Dec-15 03:14 300 7 gusting 15 8.7 7.0
2019-Dec-15 03:09 290 9 gusting 16 8.7 7.0
2019-Dec-15 03:04 290 8 gusting 16 8.7 7.0
2019-Dec-15 02:39 260 9 8.7 8.0
2019-Dec-15 02:34 270 12 8.7 8.0
2019-Dec-15 02:29 270 13 gusting 16 8.7 8.0
2019-Dec-15 02:24 300 10 gusting 16 8.7 8.0
2019-Dec-15 02:19 270 16 gusting 16 8.7 8.0
2019-Dec-15 02:14 280 14 gusting 19 8.7 8.0
2019-Dec-15 02:09 280 17 gusting 19 8.7 8.0
2019-Dec-15 02:04 280 11 gusting 19 8.7 8.0
2019-Dec-15 01:59 280 13 gusting 20 8.7 8.0
2019-Dec-15 01:54 270 9 gusting 20 8.7 8.0
2019-Dec-15 01:49 300 14 gusting 19 8.7 8.0
2019-Dec-15 01:39 280 6 gusting 18 8.7 8.0
2019-Dec-15 01:34 260 12 gusting 19 8.7 8.0
2019-Dec-15 01:29 270 10 gusting 20 8.7 8.0
2019-Dec-15 01:24 260 11 gusting 20 8.7 9.0
2019-Dec-15 01:19 290 15 8.7 8.0
2019-Dec-15 01:14 270 10 gusting 17 8.7 8.0
2019-Dec-15 01:09 280 10 gusting 16 8.7 8.0
2019-Dec-15 01:04 280 7 gusting 15 8.7 8.0
2019-Dec-15 00:59 250 11 gusting 15 8.7 8.0
2019-Dec-15 00:54 300 12 8.7 8.0
2019-Dec-15 00:49 270 6 gusting 14 8.7 8.0
2019-Dec-15 00:44 260 8 gusting 15 8.7 8.0
2019-Dec-15 00:39 270 10 8.7 8.0
2019-Dec-15 00:34 250 9 gusting 15 8.7 8.0
2019-Dec-15 00:29 270 13 gusting 16 8.7 8.0
2019-Dec-15 00:24 250 11 gusting 16 8.7 8.0
2019-Dec-15 00:19 270 13 gusting 19 8.7 8.0
2019-Dec-15 00:14 260 11 gusting 19 8.7 8.0
2019-Dec-15 00:09 270 11 gusting 17 8.7 8.0
2019-Dec-15 00:04 260 10 gusting 17 8.7 8.0
2019-Dec-14 23:39 250 12 gusting 17 8.7 8.0
2019-Dec-14 23:34 250 11 8.7 8.0
2019-Dec-14 23:29 250 10 gusting 17 8.7 8.0
2019-Dec-14 23:24 250 9 gusting 17 8.7 8.0
2019-Dec-14 23:19 270 8 8.7 8.0
2019-Dec-14 23:14 260 12 8.7 9.0
2019-Dec-14 23:09 250 10 8.7 9.0
2019-Dec-14 23:04 270 10 gusting 24 8.7 9.0
2019-Dec-14 22:59 260 10 gusting 24 8.7 9.0
2019-Dec-14 22:54 250 9 8.7 8.0
2019-Dec-14 22:49 270 10 gusting 16 8.7 8.0
2019-Dec-14 22:44 260 8 8.7 8.0
2019-Dec-14 22:39 280 8 8.7 8.0
2019-Dec-14 22:34 240 9 8.7 8.0
2019-Dec-14 22:29 260 8 8.7 9.0
2019-Dec-14 22:24 250 9 8.7 9.0
2019-Dec-14 22:19 250 7 8.7 9.0
2019-Dec-14 22:14 240 10 gusting 14 8.7 9.0
2019-Dec-14 22:09 260 9 8.7 9.0
2019-Dec-14 22:04 270 6 8.7 9.0
2019-Dec-14 21:59 250 11 8.7 9.0
2019-Dec-14 21:54 250 11 8.7 9.0
2019-Dec-14 21:49 270 8 gusting 13 8.7 9.0
2019-Dec-14 21:44 260 11 8.7 9.0
2019-Dec-14 21:39 260 10 gusting 15 8.7 9.0
2019-Dec-14 21:34 250 7 gusting 18 8.710.0
2019-Dec-14 21:29 260 11 gusting 18 8.710.0
2019-Dec-14 21:24 260 8 gusting 15 8.710.0
2019-Dec-14 21:19 250 11 gusting 16 8.710.0
2019-Dec-14 21:09 240 10 gusting 19 8.710.0
2019-Dec-14 21:04 250 9 gusting 17 8.710.0
2019-Dec-14 20:39 240 8 gusting 19 7.810.0
2019-Dec-14 20:34 250 12 gusting 17 7.810.0
2019-Dec-14 20:29 260 9 gusting 17 8.710.0
2019-Dec-14 20:24 260 11 8.710.0
2019-Dec-14 20:19 240 12 gusting 18 8.711.0
2019-Dec-14 20:14 240 14 gusting 23 8.711.0
2019-Dec-14 20:09 240 18 gusting 23 8.711.0
2019-Dec-14 20:04 250 15 gusting 20 8.711.0
2019-Dec-14 19:59 260 18 gusting 20 8.711.0
2019-Dec-14 19:54 250 15 8.711.0
2019-Dec-14 19:49 240 12 8.712.0
2019-Dec-14 19:44 250 11 gusting 18 8.712.0
2019-Dec-14 19:39 250 9 8.712.0
2019-Dec-14 19:34 250 12 gusting 18 8.712.0
2019-Dec-14 19:29 230 9 gusting 18 8.712.0
2019-Dec-14 19:24 240 12 8.713.0
2019-Dec-14 19:19 250 14 8.713.0
2019-Dec-14 19:14 250 9 8.713.0
2019-Dec-14 19:09 230 10 gusting 15 8.713.0
2019-Dec-14 19:04 240 11 7.813.0
2019-Dec-14 18:59 240 8 gusting 13 7.813.0
2019-Dec-14 18:54 250 9 7.813.0
2019-Dec-14 18:49 230 8 7.013.0
2019-Dec-14 18:44 220 8 5.213.0
2019-Dec-14 18:39 230 9 3.513.0
2019-Dec-14 18:34 220 8 2.613.0
2019-Dec-14 18:29 180 5 gusting 12 2.013.0
2019-Dec-14 18:24 210 6 1.112.0
2019-Dec-14 18:19 220 6 0.412.0
2019-Dec-14 18:14 180 7 0.413.0
2019-Dec-14 18:09 200 9 0.413.0
2019-Dec-14 18:04 190 7 0.213.0
2019-Dec-14 17:39 220 6 0.413.0
2019-Dec-14 17:34 200 8 0.413.0
2019-Dec-14 17:29 210 6 gusting 10 0.413.0
2019-Dec-14 17:24 190 7 gusting 10 0.213.0
2019-Dec-14 17:19 200 9 0.213.0
2019-Dec-14 17:14 200 5 0.213.0
2019-Dec-14 17:09 190 8 0.213.0
2019-Dec-14 17:04 200 6 0.413.0
2019-Dec-14 16:59 180 8 0.713.0
2019-Dec-14 16:54 170 6 0.913.0
2019-Dec-14 16:49 200 5 1.114.0
2019-Dec-14 16:44 180 6 0.914.0
2019-Dec-14 16:39 190 7 1.114.0
2019-Dec-14 16:34 200 6 0.914.0
2019-Dec-14 16:29 170 6 0.914.0
2019-Dec-14 16:24 170 5 1.114.0
2019-Dec-14 16:19 180 4 1.114.0
2019-Dec-14 16:14 180 4 0.914.0
2019-Dec-14 16:09 190 4 0.714.0
2019-Dec-14 16:04 210 5 0.414.0
2019-Dec-14 15:59 190 4 0.414.0
2019-Dec-14 15:54 160 4 0.414.0
2019-Dec-14 15:49 180 4 0.214.0
2019-Dec-14 15:44 190 6 0.214.0
2019-Dec-14 15:39 200 5 0.214.0
2019-Dec-14 15:34 200 3 0.214.0
2019-Dec-14 15:29 210 6 0.214.0
2019-Dec-14 15:24 180 5 0.214.0
2019-Dec-14 15:19 200 3 0.214.0
2019-Dec-14 15:14 210 3 0.414.0
2019-Dec-14 15:09 180 3 0.714.0
2019-Dec-14 15:04 1.114.0
2019-Dec-14 14:59 240 3 0.914.0
2019-Dec-14 14:54 0.714.0
2019-Dec-14 14:49 210 3 0.714.0
2019-Dec-14 14:44 220 3 0.714.0
2019-Dec-14 14:39 190 4 0.714.0
2019-Dec-14 14:34 170 3 0.414.0
2019-Dec-14 14:29 160 3 0.414.0
2019-Dec-14 14:24 0.714.0
2019-Dec-14 14:19 190 3 1.314.0
2019-Dec-14 14:14 210 5 1.114.0
2019-Dec-14 14:09 220 3 0.714.0
2019-Dec-14 14:04 0.714.0
2019-Dec-14 13:59 0.714.0
2019-Dec-14 13:54 0.413.0
2019-Dec-14 13:49 0.413.0
2019-Dec-14 13:44 0.413.0
2019-Dec-14 13:39 230 3 0.213.0
2019-Dec-14 13:34 230 5 0.213.0
2019-Dec-14 13:29 220 5 0.213.0
2019-Dec-14 13:24 230 5 0.213.0
2019-Dec-14 13:19 230 5 0.213.0
2019-Dec-14 13:14 230 4 0.213.0
2019-Dec-14 13:09 220 3 0.213.0
2019-Dec-14 13:04 200 4 0.213.0
2019-Dec-14 12:59 210 4 0.413.0
2019-Dec-14 12:54 230 5 0.413.0
2019-Dec-14 12:49 210 3 0.713.0
2019-Dec-14 12:44 0.913.0
2019-Dec-14 12:39 180 3 1.313.0
2019-Dec-14 12:34 2.013.0
2019-Dec-14 12:29 210 3 2.613.0
2019-Dec-14 12:24 200 3 3.513.0
2019-Dec-14 12:19 220 3 3.513.0
2019-Dec-14 12:14 200 4 3.513.0
2019-Dec-14 12:09 190 4 4.313.0
2019-Dec-14 12:04 190 4 3.513.0
2019-Dec-14 11:59 190 4 3.513.0
2019-Dec-14 11:54 210 6 3.513.0
2019-Dec-14 11:49 210 5 3.513.0
2019-Dec-14 11:44 200 4 3.513.0
2019-Dec-14 11:39 200 3 5.213.0
2019-Dec-14 11:34 190 5 5.213.0
2019-Dec-14 11:29 210 3 3.513.0
2019-Dec-14 11:24 220 5 2.613.0
2019-Dec-14 11:19 200 5 2.613.0
2019-Dec-14 10:59 200 5 2.213.0
2019-Dec-14 10:54 190 6 1.713.0
2019-Dec-14 10:49 190 5 1.513.0
2019-Dec-14 10:44 180 4 2.013.0
2019-Dec-14 10:39 190 5 2.613.0
2019-Dec-14 10:34 180 4 3.513.0
2019-Dec-14 10:29 200 7 3.513.0
2019-Dec-14 10:24 190 4 4.313.0
2019-Dec-14 10:19 180 5 4.313.0
2019-Dec-14 10:14 200 4 4.313.0
2019-Dec-14 10:09 180 5 4.313.0
2019-Dec-14 10:04 180 4 4.313.0
2019-Dec-14 09:59 190 3 3.513.0
2019-Dec-14 09:54 190 6 2.613.0
2019-Dec-14 09:49 2.213.0
2019-Dec-14 09:44 210 6 2.013.0
2019-Dec-14 09:39 200 3 1.513.0
2019-Dec-14 09:34 180 4 1.313.0
2019-Dec-14 09:29 190 5 1.513.0
2019-Dec-14 09:24 190 4 1.313.0
2019-Dec-14 09:19 190 3 0.913.0
2019-Dec-14 09:09 150 3 1.114.0
2019-Dec-14 09:04 170 4 1.113.0
2019-Dec-14 08:39 0.913.0
2019-Dec-14 08:34 0.913.0
2019-Dec-14 08:29 0.913.0
2019-Dec-14 08:24 1.113.0
2019-Dec-14 08:19 2.013.0
2019-Dec-14 08:14 2.613.0
2019-Dec-14 08:09 2.413.0
2019-Dec-14 08:04 1.313.0
2019-Dec-14 07:59 1.313.0
2019-Dec-14 07:54 1.713.0
2019-Dec-14 07:49 2.213.0
2019-Dec-14 07:44 2.213.0
2019-Dec-14 07:39 2.013.0
2019-Dec-14 07:34 080 3 1.513.0
2019-Dec-14 07:29 1.113.0
2019-Dec-14 07:24 0.913.0
2019-Dec-14 07:19 1.113.0
2019-Dec-14 07:14 1.113.0
2019-Dec-14 07:09 0.713.0
2019-Dec-14 07:04 0.713.0
2019-Dec-14 06:59 0.413.0
2019-Dec-14 06:54 0.413.0
2019-Dec-14 06:49 0.713.0
2019-Dec-14 06:44 0.713.0
2019-Dec-14 06:39 0.713.0
2019-Dec-14 06:34 0.713.0
2019-Dec-14 06:29 0.913.0
2019-Dec-14 06:24 0.913.0
2019-Dec-14 06:19 1.113.0
2019-Dec-14 06:14 1.113.0
2019-Dec-14 06:09 1.113.0
2019-Dec-14 06:04 1.313.0
2019-Dec-14 05:59 1.513.0
2019-Dec-14 05:54 1.713.0
2019-Dec-14 05:49 2.213.0
2019-Dec-14 05:44 2.613.0
2019-Dec-14 05:39 2.613.0
2019-Dec-14 05:34 3.513.0
2019-Dec-14 05:29 3.513.0
2019-Dec-14 05:24 3.513.0
2019-Dec-14 05:19 4.313.0
2019-Dec-14 05:14 6.113.0
2019-Dec-14 05:09 5.213.0
2019-Dec-14 05:04 2.613.0
2019-Dec-14 04:59 2.213.0
2019-Dec-14 04:54 110 5 2.613.0
2019-Dec-14 04:49 120 3 2.613.0
2019-Dec-14 04:44 150 3 1.513.0
2019-Dec-14 04:39 200 3 0.913.0
2019-Dec-14 04:34 130 5 0.913.0 Mist.
2019-Dec-14 04:29 1.313.0
2019-Dec-14 04:24 2.013.0
2019-Dec-14 04:19 150 8 gusting 10 2.613.0
2019-Dec-14 04:14 120 10 3.513.0
2019-Dec-14 04:09 150 3 3.513.0 Mist.
2019-Dec-14 04:04 3.513.0 Mist.
2019-Dec-14 03:59 110 4 3.513.0 Mist.
2019-Dec-14 03:54 120 4 3.513.0
2019-Dec-14 03:49 120 6 2.613.0
2019-Dec-14 03:44 110 6 2.613.0
2019-Dec-14 03:39 100 5 2.613.0
2019-Dec-14 03:34 080 6 gusting 11 2.613.0
2019-Dec-14 03:29 100 6 2.613.0
2019-Dec-14 03:24 070 7 2.013.0
2019-Dec-14 03:19 090 5 1.513.0
2019-Dec-14 03:14 100 8 1.713.0
2019-Dec-14 03:09 100 8 2.213.0
2019-Dec-14 03:04 090 7 gusting 13 2.413.0
2019-Dec-14 02:59 100 7 gusting 14 2.613.0
2019-Dec-14 02:54 120 9 2.613.0
2019-Dec-14 02:49 110 6 3.513.0
2019-Dec-14 02:44 100 7 gusting 16 3.513.0
2019-Dec-14 02:39 080 11 gusting 23 3.513.0
2019-Dec-14 02:34 090 12 gusting 23 3.514.0
2019-Dec-14 02:29 110 13 gusting 20 3.514.0
2019-Dec-14 02:24 100 10 gusting 17 4.313.0
2019-Dec-14 02:19 100 11 gusting 19 5.213.0
2019-Dec-14 02:14 090 12 gusting 19 3.513.0
2019-Dec-14 02:09 090 9 gusting 15 2.613.0
2019-Dec-14 02:04 090 8 gusting 17 2.613.0
2019-Dec-14 01:59 100 13 gusting 17 2.613.0
2019-Dec-14 01:54 100 10 2.213.0
2019-Dec-14 01:49 090 9 gusting 13 1.513.0
2019-Dec-14 01:44 100 7 gusting 13 1.713.0
2019-Dec-14 01:39 100 8 2.213.0
2019-Dec-14 01:34 110 10 gusting 13 2.213.0
2019-Dec-14 01:29 080 10 2.413.0
2019-Dec-14 01:24 080 8 gusting 12 2.613.0
2019-Dec-14 01:19 120 6 2.612.0
2019-Dec-14 01:14 090 12 gusting 12 2.612.0
2019-Dec-14 01:09 080 7 2.612.0
2019-Dec-14 01:04 070 6 3.512.0
2019-Dec-14 00:59 070 7 4.312.0
2019-Dec-14 00:54 070 7 5.212.0
2019-Dec-14 00:49 070 9 5.212.0
2019-Dec-14 00:44 060 6 5.212.0
2019-Dec-14 00:39 070 6 4.312.0
2019-Dec-14 00:34 060 7 5.212.0 Light rain.
2019-Dec-14 00:29 060 5 5.212.0
2019-Dec-14 00:24 040 5 4.312.0
2019-Dec-14 00:19 040 3 3.512.0
2019-Dec-14 00:14 040 6 2.612.0
2019-Dec-14 00:09 040 6 1.512.0
2019-Dec-14 00:04 050 5 1.512.0
2019-Dec-13 23:39 050 6 2.612.0
2019-Dec-13 23:34 070 5 3.512.0
2019-Dec-13 23:29 060 5 2.612.0
2019-Dec-13 23:24 060 5 2.412.0
2019-Dec-13 23:19 060 7 2.412.0
2019-Dec-13 23:14 040 6 2.612.0
2019-Dec-13 23:09 050 5 2.612.0
2019-Dec-13 23:04 060 7 3.512.0
2019-Dec-13 22:59 050 4 3.512.0
2019-Dec-13 22:54 060 6 2.612.0
2019-Dec-13 22:49 070 5 2.212.0
2019-Dec-13 22:44 070 7 2.012.0
2019-Dec-13 22:39 060 7 1.512.0
2019-Dec-13 22:34 060 7 1.512.0
2019-Dec-13 22:29 070 6 1.512.0
2019-Dec-13 22:24 080 6 1.512.0
2019-Dec-13 22:19 080 6 2.212.0
2019-Dec-13 22:14 090 6 3.512.0
2019-Dec-13 22:09 090 5 6.112.0
2019-Dec-13 22:04 090 6 7.812.0
2019-Dec-13 21:59 090 6 8.712.0
2019-Dec-13 21:54 070 6 8.712.0
2019-Dec-13 21:49 070 5 7.812.0
2019-Dec-13 21:44 090 4 6.112.0
2019-Dec-13 21:39 070 3 3.512.0
2019-Dec-13 21:34 080 3 2.612.0
2019-Dec-13 21:29 100 3 2.612.0
2019-Dec-13 21:24 120 3 3.512.0
2019-Dec-13 21:19 110 4 4.312.0
2019-Dec-13 21:14 100 4 4.312.0
2019-Dec-13 21:09 100 5 4.312.0
2019-Dec-13 21:04 080 6 2.612.0
2019-Dec-13 20:59 1.312.0
2019-Dec-13 20:54 110 7 0.912.0
2019-Dec-13 20:49 100 6 1.312.0
2019-Dec-13 20:44 090 6 2.612.0
2019-Dec-13 20:39 090 6 3.512.0
2019-Dec-13 20:34 100 7 2.612.0
2019-Dec-13 20:29 110 5 2.612.0
2019-Dec-13 20:24 100 5 2.612.0
2019-Dec-13 20:19 100 6 2.612.0
2019-Dec-13 20:14 130 9 2.212.0
2019-Dec-13 20:09 130 6 2.212.0
2019-Dec-13 20:04 120 5 2.212.0
2019-Dec-13 19:59 140 7 2.412.0
2019-Dec-13 19:54 130 7 2.611.0
2019-Dec-13 19:49 130 5 2.611.0
2019-Dec-13 19:44 140 8 2.411.0
2019-Dec-13 19:39 130 10 2.211.0
2019-Dec-13 19:34 120 10 2.211.0
2019-Dec-13 19:29 130 7 2.411.0
2019-Dec-13 19:24 130 5 2.411.0
2019-Dec-13 19:19 120 6 2.211.0
2019-Dec-13 19:14 150 4 2.211.0
2019-Dec-13 19:09 120 6 2.211.0
2019-Dec-13 19:04 130 6 2.411.0
2019-Dec-13 18:59 130 6 2.611.0
2019-Dec-13 18:54 130 5 2.611.0
2019-Dec-13 18:49 130 4 2.611.0
2019-Dec-13 18:44 120 6 2.611.0
2019-Dec-13 18:39 110 4 2.612.0
2019-Dec-13 18:34 110 5 3.512.0
2019-Dec-13 18:29 140 4 4.312.0
2019-Dec-13 18:24 100 3 5.212.0
2019-Dec-13 18:19 120 5 5.212.0
2019-Dec-13 18:14 080 4 5.212.0 Mist.
2019-Dec-13 18:09 110 3 6.112.0
2019-Dec-13 18:04 080 3 6.112.0
2019-Dec-13 17:39 100 4 7.012.0
2019-Dec-13 17:34 090 3 7.011.0
2019-Dec-13 17:29 090 4 7.011.0
2019-Dec-13 17:24 060 5 7.011.0
2019-Dec-13 17:19 090 4 7.011.0
2019-Dec-13 17:14 080 4 7.011.0
2019-Dec-13 17:09 080 3 7.011.0
2019-Dec-13 17:04 100 4 7.011.0
2019-Dec-13 16:59 090 4 7.011.0
2019-Dec-13 16:54 080 3 7.011.0
2019-Dec-13 16:49 090 4 7.011.0
2019-Dec-13 16:44 080 6 7.011.0
2019-Dec-13 16:39 080 3 7.011.0
2019-Dec-13 16:34 080 3 7.811.0
2019-Dec-13 16:29 070 4 7.811.0
2019-Dec-13 16:24 080 4 7.011.0
2019-Dec-13 16:19 070 3 7.010.0
2019-Dec-13 16:14 080 3 7.810.0
2019-Dec-13 16:09 080 6 7.810.0
2019-Dec-13 16:04 100 3 7.810.0
2019-Dec-13 15:59 090 4 7.810.0
2019-Dec-13 15:54 090 4 7.810.0
2019-Dec-13 15:49 100 3 8.710.0
2019-Dec-13 15:44 080 6 8.710.0
2019-Dec-13 15:39 080 6 8.710.0
2019-Dec-13 15:34 090 5 8.7 9.0
2019-Dec-13 15:29 110 4 8.7 9.0
2019-Dec-13 15:24 080 3 7.8 9.0
2019-Dec-13 15:19 070 5 7.8 9.0
2019-Dec-13 15:14 080 4 7.8 9.0
2019-Dec-13 15:09 070 5 7.8 9.0
2019-Dec-13 15:04 080 4 7.8 9.0